sat.trackr.live / text

‹ back to catalog

STARLINK-37055

NORAD 68147 · 2026-049F

PAYLOAD ACTIVE UNKNOWN

§ Identity

Operator
Country
US
Launch date
2026-03-13
Launch site
AFWTR
Launch vehicle
Mass (kg)
RCS (m²)

Purposes: comms

External: N2YO · Heavens-Above · Gunter

§ Orbital elements

Epoch: 2026-09-20T00:04:40.950336Z

Period
93.91 min
Inclination
97.2807°
Eccentricity
0.0001701
Mean motion
15.33444907 rev/d
Perigee alt
464.4 km
Apogee alt
466.7 km
Semi-major
6,843.7 km
B*
4.5183e-4
RAAN
282.9436°
Arg perigee
106.0474°
Mean anomaly
254.0956°
Rev number
2,942

§ Raw data

STARLINK-370551 68147U 26049F   26263.00325174  .00014540  00000+0  45183-3 0  99952 68147  97.2807 282.9436 0001701 106.0474 254.0956 15.33444907 29424

JSON: /api/v1/satellites/68147 · /tle

For live sub-satellite position, see the globe view (requires WebGL).

§ Visibility from observer

Set your observer location to see the next 7 days of passes ≥ 10°. The values pass through the URL so the page stays shareable.

No JS? Fill the form by hand. The geolocation button needs JavaScript.